Wind_Speed
7 6 4 2 3 5 6 9 11 13 15 16 17 18 19 20 21 22 23 23 24 25 26 25 25 26 25 25 27 27 28 27 17 26 27 27 29 28 24 22 24 20 22
4 3 3 4 5 7 9 11 13 15 16 17 17 19 19 21 22 23 24 25 25 25 25 27 28 27 27 26 26 26 27 27 28 18 28 29 32 33 27 24 25 29 26
5 5 5 6 9 10 12 13 14 16 18 19 19 20 21 23 23 23 24 24 23 21 22 23 24 26 27 24 24 25 27 28 29 29 27 29 27 28 32 30 27 21 23
9 10 11 12 14 15 17 16 16 15 17 19 20 20 22 22 21 21 22 24 23 22 25 28 30 31 31 28 25 25 26 26 26 27 27 26 26 27 24 22 21 23 21
10 11 12 14 15 16 17 17 16 15 18 19 21 21 20 21 21 23 26 23 25 26 27 29 32 33 33 35 33 30 31 32 30 27 26 25 24 24 20 23 20 22 18
10 13 14 15 17 17 18 18 16 15 19 20 20 20 18 20 25 28 30 33 31 29 30 32 34 33 35 36 36 38 38 33 31 27 25 21 27 29 29 19 18 10 3
13 15 15 16 18 18 19 19 18 19 21 21 21 18 21 25 25 29 36 37 28 27 32 34 33 30 32 34 32 35 37 37 42 38 34 32 30 30 28 25 19 12 12
15 16 17 18 19 20 20 20 21 21 22 21 18 22 23 24 28 33 35 34 29 31 31 30 30 32 30 32 32 31 32 33 34 34 34 37 37 37 35 29 25 20 19
16 17 18 19 21 21 20 20 20 22 23 21 20 23 23 24 31 34 33 27 24 28 27 28 32 35 37 36 33 30 31 34 35 37 40 42 43 41 42 30 23 14 10
17 19 19 19 20 21 20 21 21 23 24 21 23 22 26 27 31 33 30 27 25 25 30 32 35 36 39 37 35 29 27 32 32 30 31 33 38 39 40 39 26 16 14
18 19 20 20 20 21 21 20 23 21 21 22 23 25 23 28 31 31 30 32 23 23 27 31 33 34 34 34 32 31 35 37 34 30 30 30 27 22 31 39 38 27 22
18 20 21 20 20 20 21 20 22 20 20 19 19 22 22 24 27 27 13 20 23 26 28 30 33 34 33 34 35 39 41 43 34 29 26 26 23 22 25 27 28 32 32
19 21 20 19 19 19 20 20 19 16 17 18 18 18 21 22 23 19 24 21 28 29 29 33 27 28 26 22 13 20 12 15 14 19 18 21 26 27 25 22 25 25 26
20 21 19 19 20 18 18 17 18 17 17 17 17 18 21 24 24 20 21 28 33 29 26 30 32 30 23 18 17 10 5 12 17 9 14 10 12 8 17 22 21 23 24
20 20 18 19 19 18 18 18 20 19 18 20 21 21 22 25 27 31 35 32 31 27 28 26 22 22 20 20 19 17 9 8 15 20 14 13 7 20 20 26 20 23 17
22 18 18 18 18 19 21 24 22 19 21 17 18 23 29 30 32 27 27 26 23 18 14 16 21 19 15 12 6 1 4 3 7 11 16 20 10 8 27 28 28 26 23
19 23 18 17 18 19 19 18 22 30 24 18 21 21 18 20 26 27 23 21 15 13 19 19 21 12 10 16 13 8 1 4 4 3 15 10 10 23 28 29 28 28 23
18 25 18 17 18 19 19 20 20 19 19 25 26 31 31 22 20 19 17 15 19 17 19 22 21 13 13 20 25 19 5 8 5 5 4 2 9 20 23 19 20 21 24
20 27 21 18 17 19 20 21 20 19 19 20 24 35 37 32 24 18 17 12 17 21 23 30 29 15 14 9 11 16 16 13 12 9 11 11 14 17 18 22 23 24 23
14 25 22 21 21 21 22 22 23 23 21 21 21 28 37 32 30 29 27 16 19 22 28 32 28 28 32 27 23 10 24 25 21 20 21 17 21 21 21 22 24 21 18
11 15 21 24 23 21 22 21 24 23 22 21 22 27 35 26 26 28 29 27 31 36 37 36 22 23 32 28 35 32 24 26 30 28 26 22 19 23 21 21 20 24 24
17 16 14 21 22 24 21 22 24 25 25 24 25 29 34 30 31 30 30 35 41 35 34 28 10 21 26 28 28 30 31 35 34 28 27 24 25 21 22 22 24 23 22
19 19 19 19 19 22 22 24 25 25 25 26 27 28 31 30 33 35 32 34 38 33 35 33 34 35 31 31 33 38 39 36 36 30 27 25 26 21 20 21 20 20 19
20 19 20 20 23 21 21 20 25 25 26 25 27 28 30 31 32 39 40 37 36 31 35 37 35 39 35 35 34 34 33 33 32 31 26 23 21 22 20 17 15 18 21
19 19 21 21 22 22 22 21 21 22 25 25 27 28 28 29 32 35 34 33 33 35 34 33 35 34 32 34 34 30 24 24 26 26 25 18 20 17 17 16 15 14 14
19 20 18 19 20 21 22 22 22 23 22 25 25 25 27 28 29 29 33 33 33 32 33 32 34 32 30 33 34 27 20 19 20 21 22 18 16 14 13 13 11 9 7
Wind_Direction
97 82 70 26 342 315 296 292 288 291 299 298 295 293 292 293 288 285 284 285 281 279 280 280 282 283 282 283 285 288 286 288 288 287 287 288 281 277 275 281 282 298 293
91 66 11 329 305 299 299 295 298 293 292 293 296 292 295 293 292 288 286 279 279 280 283 282 282 281 277 278 277 279 284 292 293 291 289 281 276 281 286 265 278 286 282
24 354 342 327 309 300 293 295 299 300 298 295 296 297 297 293 292 288 283 282 286 295 300 302 301 301 294 292 286 282 284 285 288 296 296 290 283 275 266 269 281 276 277
357 342 332 327 317 311 304 299 295 298 303 304 299 297 290 287 288 292 299 299 298 300 302 298 292 288 285 286 285 283 282 282 285 287 287 300 285 267 269 268 261 267 262
339 326 316 311 306 302 300 298 298 300 302 296 294 290 290 294 292 293 301 298 297 297 296 292 288 283 281 281 278 276 275 276 274 278 282 286 290 288 249 249 262 267 257
328 317 317 320 314 311 310 308 309 311 302 295 290 288 296 298 291 295 296 300 299 297 292 289 288 284 282 279 275 272 267 263 267 268 269 268 273 276 289 256 252 252 250
330 322 324 323 318 322 321 318 318 314 306 296 293 291 294 291 293 298 299 301 290 289 288 287 285 280 283 281 275 273 268 264 265 263 262 261 263 264 271 282 267 268 267
330 329 329 325 321 321 321 316 312 306 304 299 296 298 292 291 296 301 301 297 292 289 286 287 287 289 287 284 279 273 269 267 267 263 258 257 254 257 253 259 266 268 274
335 334 330 325 319 317 312 310 306 306 304 303 301 294 293 298 303 304 303 295 290 287 287 291 290 289 284 287 281 275 271 269 268 267 266 265 266 262 250 248 247 245 257
339 329 322 319 316 313 309 306 303 296 293 295 298 295 299 299 304 296 297 290 286 289 294 291 288 283 283 284 282 270 269 272 269 266 267 266 266 257 242 237 231 230 234
329 324 321 318 316 311 305 302 300 300 303 300 295 296 297 303 295 292 298 294 285 294 296 293 291 287 284 285 283 275 265 271 273 271 265 268 269 245 232 233 236 225 228
330 326 322 323 322 316 313 310 306 302 298 298 301 302 302 296 298 303 300 311 311 303 294 294 294 294 292 290 285 281 284 277 264 253 247 247 252 251 231 215 223 228 222
332 330 327 326 324 322 317 310 313 319 320 310 305 302 302 304 307 296 322 321 317 311 295 296 306 312 319 321 321 332 338 333 293 233 231 239 239 241 229 224 231 212 205
336 332 334 333 327 325 327 323 321 317 311 306 306 307 303 302 302 307 318 316 317 313 318 320 321 313 295 281 291 311 330 351 337 10 202 184 161 180 220 200 193 188 178
342 339 340 338 333 335 330 324 317 307 302 300 297 294 295 297 298 304 312 312 310 311 317 331 309 304 295 276 262 258 259 333 12 40 27 46 28 315 242 194 184 163 138
360 345 342 338 339 340 336 330 328 327 331 326 314 299 296 294 314 317 308 310 314 317 307 276 291 293 256 292 264 61 340 30 65 61 49 53 340 354 136 151 149 126 121
1 352 345 347 349 343 337 334 331 343 353 357 10 20 15 332 314 314 314 316 328 317 304 307 315 271 1 336 28 42 44 281 246 151 100 73 349 61 79 102 112 117 116
11 6 357 353 351 346 346 348 348 344 343 346 356 355 7 6 356 334 319 347 347 339 316 315 319 306 352 84 34 350 329 23 27 182 200 98 86 99 97 86 96 114 117
25 20 6 1 359 1 1 357 355 357 357 355 358 359 10 14 15 10 342 357 313 321 333 330 336 331 7 90 101 39 54 355 8 78 122 132 121 109 96 105 109 107 100
37 26 17 11 13 11 7 4 3 3 3 8 6 2 358 5 7 2 1 345 356 343 344 342 352 30 20 12 48 104 59 58 81 77 97 122 112 107 104 109 116 116 100
38 33 25 18 19 17 15 11 7 5 5 7 5 3 12 6 2 5 3 11 5 356 341 332 351 47 29 38 42 30 44 43 55 63 64 77 107 111 114 122 123 111 117
25 33 41 27 21 18 17 19 15 11 8 9 8 6 13 13 10 10 4 9 16 2 354 1 99 89 58 46 48 25 23 25 25 48 54 65 80 100 99 100 111 116 121
24 29 26 33 21 26 22 24 18 14 13 13 12 11 13 13 10 7 7 5 5 5 13 25 35 43 46 45 41 37 34 29 25 35 65 62 62 72 94 103 111 113 116
28 31 26 29 19 19 23 24 24 17 16 16 16 15 13 11 9 9 13 11 2 360 16 24 28 33 36 37 35 33 30 30 31 31 45 66 68 70 79 97 113 129 141
33 32 35 22 25 16 15 19 22 18 18 16 16 14 11 12 12 8 11 9 3 7 12 15 21 28 22 23 21 19 23 29 29 31 42 63 70 73 85 89 99 113 140
38 34 37 32 27 24 20 12 18 12 19 14 13 14 13 12 9 9 10 6 8 9 10 11 14 15 11 11 7 7 11 20 23 27 29 44 71 76 83 96 97 99 119
Height
747 749 752 754 755 757 758 758 758 758 755 754 754 754 753 751 753 752 751 749 747 746 745 743 741 741 739 737 737 733 729 725 715 710 709 707 704 702 702 702 702 703 700
750 753 754 756 758 758 756 757 755 755 754 753 749 749 746 748 748 747 744 745 741 740 739 737 735 734 733 730 729 727 725 721 717 707 705 702 701 699 697 696 696 696 696
753 754 755 756 756 756 756 754 752 751 749 748 746 745 744 745 742 742 741 738 736 734 734 731 731 731 727 725 723 721 719 716 712 708 701 698 695 693 691 690 690 689 689
752 753 753 753 753 752 751 750 749 748 746 745 745 743 743 741 740 738 735 733 732 730 728 726 726 724 721 719 716 714 712 708 707 703 698 696 690 687 686 684 683 683 683
753 753 753 753 752 751 750 748 746 744 743 742 741 740 738 737 736 733 732 730 727 723 721 720 718 715 713 710 707 705 705 703 700 698 695 692 688 683 678 678 677 676 677
755 754 752 750 749 748 746 744 742 741 740 739 737 736 734 733 732 730 728 724 721 717 714 712 708 705 701 698 696 695 695 693 691 691 688 685 682 681 677 672 671 672 674
752 752 749 749 748 746 744 743 741 739 737 735 733 732 731 729 727 724 721 718 714 711 707 702 698 695 691 688 685 683 682 681 680 680 676 675 674 673 673 670 668 667 668
752 750 750 749 747 745 743 741 739 737 734 731 729 728 726 723 722 719 715 711 707 703 699 695 690 685 682 678 675 673 671 669 668 666 664 663 663 664 665 665 665 664 664
753 752 751 750 747 744 742 739 737 734 731 728 726 724 721 718 716 711 708 705 700 695 691 686 681 675 670 668 666 662 659 656 654 653 652 651 651 653 656 658 658 660 660
755 754 752 749 745 742 739 737 735 732 728 725 721 719 717 713 710 705 701 697 693 688 683 676 669 665 660 658 656 652 649 643 641 640 638 637 636 635 641 646 650 653 655
756 753 749 746 743 740 736 734 731 727 724 722 718 714 711 709 703 698 694 691 687 682 676 668 660 655 651 648 646 643 636 631 629 628 626 625 624 625 628 634 638 644 648
755 752 747 744 741 737 734 731 727 724 721 717 713 709 707 702 697 692 689 687 683 677 669 662 654 645 641 638 634 627 621 618 616 614 614 613 615 617 619 623 627 634 639
754 750 745 742 739 736 732 728 724 721 719 714 711 707 702 697 692 688 685 681 676 671 664 654 650 642 634 628 624 620 616 610 603 601 602 603 604 607 612 616 622 627 634
752 748 745 741 737 734 730 727 723 720 717 714 710 705 699 693 687 684 681 676 670 665 658 652 646 639 630 627 622 619 614 609 599 591 591 593 594 600 605 610 616 623 630
752 748 744 741 737 732 729 725 721 718 716 713 708 703 697 689 683 682 677 670 668 663 658 650 638 632 628 622 619 617 614 610 603 598 593 590 590 587 593 603 613 620 627
754 749 746 741 737 733 728 721 717 715 710 706 702 699 692 688 680 676 669 667 665 660 654 650 639 633 626 618 614 615 615 612 607 604 601 595 592 581 584 600 611 619 628
756 750 746 742 739 735 730 725 717 708 705 703 699 694 690 686 677 667 665 663 660 656 648 645 636 630 626 620 620 616 611 609 608 606 607 602 594 591 593 603 613 623 632
757 753 748 745 742 737 732 726 722 717 711 703 698 694 687 681 675 667 657 661 658 656 653 646 639 633 627 627 628 619 613 608 605 605 606 608 607 608 611 615 623 630 636
759 756 752 748 744 740 734 729 725 721 716 711 704 693 687 680 676 672 664 664 663 659 654 646 641 632 629 626 622 622 619 612 610 610 610 612 615 616 621 627 632 636 640
760 759 756 751 747 742 737 732 727 724 721 717 712 706 695 686 680 677 673 671 668 662 660 654 645 638 635 629 629 624 619 618 618 614 617 618 620 623 627 632 637 643 649
760 760 759 755 751 748 744 739 734 729 727 723 718 713 707 699 693 688 681 678 673 667 664 655 653 647 647 645 637 636 633 627 625 626 624 626 628 631 634 638 642 648 653
764 762 761 760 757 753 749 745 740 735 731 727 722 716 710 705 699 697 691 684 680 677 671 660 657 655 658 655 649 644 640 637 636 635 632 633 633 636 639 643 648 652 657
767 766 764 763 761 758 754 751 746 742 738 733 728 722 717 713 708 703 699 696 689 688 682 675 668 663 663 662 660 656 652 649 647 646 645 643 643 644 647 650 653 658 662
772 770 770 768 766 762 759 756 752 748 744 739 735 730 725 721 715 708 704 702 698 698 685 683 679 674 671 668 666 664 662 659 656 654 654 653 654 655 655 657 660 662 666
777 775 775 773 771 767 763 760 757 753 749 745 742 737 734 729 724 718 716 714 707 700 697 693 690 686 685 679 676 673 670 668 666 663 662 662 661 662 662 664 666 668 671
781 780 779 777 774 772 769 765 763 759 755 751 748 744 741 736 732 729 723 717 713 709 704 701 697 695 691 686 683 680 677 674 672 670 668 669 668 668 668 669 671 673 674